星链-37418(STARLINK-37418)

导读

STARLINK-37418(NORAD编号68775)是SpaceX星链(Starlink)星座中的一颗通信卫星,属于星链低轨互联网星座的组网卫星之一,主要服务于全球卫星宽带互联网业务,为地面用户提供高速互联网接入服务。 该卫星运行在近地轨道,是SpaceX批量生产部署的星链卫星之一,延续了星链卫星标准化设计,具备较低制造成本和成熟的空间通信能力。作为星链星座扩张的一部分,它进一步扩展了星座覆盖范围与服务容量,助力SpaceX实现全球无缝卫星互联网的建设目标。

基本信息
目录编号:
68775
目录名称:
STARLINK-37418
国际标识:
2026-086K
轨道中心:
EARTH
卫星名称:
星链-37418
卫星全名:
星链-37418(STARLINK-37418)
卫星状态:
在轨 (已飞行146 天)
发射日期:
2026-04-19 UTC
国别 :
美国 (US)
星等 :
--
该卫星已列入 空间交会检测服务 Space Conjunction Data Service (SCDS) ,当前飞行风险评估等级: 无高风险
轨道信息
数据来源 国际轨道数据 AOE轨道数据
星历时间 2026-09-12T09:53:41+0800
8小时前
查看轨道信息
2026-09-09T23:00:00+0800
2天前
查看轨道信息
半长轴 6843.634km 6843.702km
偏心率 0.0002969 0.0001543
轨道倾角 97.284° 97.289°
近地点辐角 92.920° 65.314°
升交点赤经 290.615° 288.197°
平近点角 267.238° 76.927°
近地点 463.465km 464.509km
远地点 467.529km 466.621km
周期 93.905分钟 93.907分钟
每日圈数 15.334606 15.334379
详细信息
固有亮度:
5
最大亮度:
2.5
卫星平台:
Starlink V1.0
覆盖范围:
全球
运营商:
太空探索技术公司
运营商所在国:
美国
制造商(研发单位):
太空探索技术公司
制造商所在国:
美国
使用方式:
暂无
卫星简介
Starlink 计划是 SpaceX 推出的全球卫星互联网项目,通过发射低轨道卫星,为全球尤其是偏远地区提供高速、低延迟的互联网服务。自 2019 年起,Starlink 已部署数千颗卫星,旨在缩小全球数字鸿沟,推动互联网普及。该项目还为军事、航空等行业提供通信支持,带来广泛经济效益。
2D轨道图
3D轨道图
轨道高度分析图
轨道倾角分析图
轨道综合分析图
查看轨道综合分析图
交会数据列表
事件ID 空间交会对象 最接近时刻(TCA) 交会距离 交会风险概率(CRP) 交会风险指数(CRI) 操作
CDM_260913-142406-754206-877521
2026-09-13T
14:24:54+0000
0.567 km
远距离
1.50831E-4 高风险 0.79
CDM_260913-152000-635006-877521
2026-09-13T
15:20:46+0000
1.016 km
极远距离
2.517723E-5 中风险 0.63
CDM_260913-072206-754206-877521
2026-09-13T
07:22:06+0000
1.188 km
极远距离
1.476352E-5 中风险 0.58
CDM_260913-155806-754206-877521
2026-09-13T
15:58:51+0000
1.568 km
极远距离
5.760899E-6 低风险 0.5
CDM_260913-054806-754206-877521
2026-09-13T
05:48:09+0000
1.757 km
极远距离
4.054532E-6 低风险 0.47
CDM_260914-012106-323806-877521
2026-09-14T
01:21:09+0000
1.950 km
极远距离
2.981748E-6 低风险 0.44
CDM_260913-125006-754206-877521
2026-09-13T
12:50:57+0000
2.454 km
极远距离
1.803807E-6 低风险 0.4
CDM_260913-085606-754206-877521
2026-09-13T
08:56:03+0000
2.471 km
极远距离
1.779421E-6 低风险 0.4
CDM_260912-092905-314506-877521
2026-09-12T
09:29:41+0000
2.841 km
极远距离
1.315829E-6 低风险 0.37
CDM_260912-202705-313806-877521
2026-09-12T
20:27:17+0000
2.832 km
极远距离
1.30146E-6 低风险 0.37
与全量物体交会距离演化趋势
与全量物体交会风险概率演化趋势